[[{"header":{"parameterUnit":"m.s-1","parameterCategory":1,"la1":30.2991,"la2":30.254,"lo1":-89.0895,"lo2":-89.0444,"dy":0.0017,"dx":0.0017,"nx":28,"ny":28,"refTime":"2024-09-29T21:00:00:Z","depth":0,"parameterNumber":2,"parameterNumberName":"U-component_of_WINDS"},"data":[0,0,0,0,0,0,0,0,0,0,0,0,0,0,0,0,0,0,0,0,0,0,0,0,0,0,0,0,0,0,0,0,0,0,0,0,0,0,0,0,0,0,0,0,0,0,0,0,0,0,0,0,0,0,0,0,0,0,2.6366,2.6367,0,2.6452,2.6453,2.6454,2.6445,2.6444,2.6443,2.6441,2.653,2.6534,2.6537,0,0,0,0,0,0,0,0,0,0,0,0,0,2.6194,2.6197,2.6366,2.6367,2.6368,2.6452,2.6454,2.6455,2.6446,2.6444,2.6442,2.6441,2.6529,2.6533,2.6538,0,0,0,0,0,0,0,0,0,0,0,0,0,2.6273,2.6198,2.6366,2.6374,2.6376,2.6452,2.6454,2.6455,2.6446,2.6444,2.6442,2.644,2.6528,2.6533,2.6538,2.6612,0,0,2.6555,2.6557,0,0,0,0,0,0,0,0,2.6269,2.628,2.6372,2.6374,2.6375,2.6436,2.6425,2.6508,2.6447,2.6419,2.6441,2.6439,2.6501,2.6508,2.6529,2.6617,2.662,2.6555,2.6559,2.6561,2.6562,0,0,0,0,0,0,0,2.6263,2.6276,2.64,2.6373,2.6375,2.6373,2.6382,2.6441,2.647,2.6421,2.6421,2.6431,2.6501,2.6523,2.6531,2.6622,2.6555,2.656,2.6563,2.6565,2.6774,2.6776,0,0,0,0,0,0,2.6256,2.6271,2.6398,2.6403,2.6316,2.6378,2.6388,2.6419,2.647,2.6475,2.6433,2.6431,2.6515,2.6524,2.6534,2.6622,2.6561,2.6566,2.6569,2.6772,2.6774,2.6777,0,0,0,0,0,0,2.6252,2.6267,2.6394,2.6337,2.6353,2.6383,2.6418,2.6421,2.6444,2.6478,2.6484,2.645,2.6514,2.6526,2.6593,2.6625,2.6568,2.6573,2.6769,2.6772,2.6776,2.6801,0,0,0,0,0,0,2.6247,2.6266,2.6294,2.6338,2.6356,2.6451,2.642,2.6425,2.6453,2.6451,2.6496,2.6501,2.6513,2.6585,2.6598,2.6632,2.6578,2.6766,2.677,2.6775,2.6798,2.6805,2.6812,0,0,0,0,0,2.6241,2.6298,2.6296,2.6311,2.6392,2.6453,2.6464,2.6476,2.6456,2.6484,2.6507,2.65,2.6621,2.6591,2.6607,2.6643,2.6764,2.6769,2.6774,2.6795,2.6804,2.6812,0,0,0,0,0,0,2.6258,2.6304,2.6302,2.6375,2.641,2.6452,2.6488,2.6486,2.6527,2.6523,2.6537,2.6548,2.6614,2.6636,2.6603,2.6717,2.6689,2.6698,2.67,2.6709,2.6716,2.6708,2.6582,0,0,0,0,0,2.627,2.6316,2.6354,2.6415,2.6433,2.6457,2.6485,2.6491,2.6528,2.6543,2.657,2.6607,2.6653,2.6682,2.6727,2.6802,2.6811,2.6834,2.6841,2.6847,2.6853,2.6893,2.6903,2.6794,2.6794,2.6793,0,0,2.6295,2.6327,2.6354,2.6419,2.6447,2.6493,2.647,2.6521,2.6555,2.6551,2.6614,2.6636,2.6678,2.6748,2.6781,2.6768,2.6886,2.6853,2.6858,2.6861,2.6899,2.691,2.6919,2.6797,2.6796,2.6796,0,0,2.6365,2.6394,2.6447,2.6476,2.6519,2.6535,2.6548,2.659,2.6604,2.6669,2.6666,2.6708,2.6787,2.6816,2.6842,2.6924,2.6918,2.6938,2.6973,2.7012,2.7021,2.7028,2.7056,2.7065,2.6945,2.6945,2.6945,0,2.6391,2.6461,2.6474,2.6525,2.6553,2.6552,2.6606,2.6633,2.6689,2.6708,2.6693,2.6792,2.682,2.6897,2.6917,2.6938,2.6952,2.6931,2.7019,2.7026,2.7034,2.706,2.707,2.6947,2.6946,2.6946,2.6946,0,2.649,2.6539,2.6576,2.6629,2.6662,2.6714,2.6735,2.6767,2.6771,2.6789,2.6854,2.6889,2.6939,2.6959,2.6964,2.7036,2.7026,2.7015,2.6988,2.7046,2.707,2.7081,2.6949,2.6949,2.6948,2.6948,0,0,2.657,2.663,2.6644,2.6667,2.6715,2.6753,2.6806,2.6855,2.6881,2.692,2.6963,2.7031,2.702,2.7049,2.7058,2.7092,2.7152,2.7077,2.7078,2.7087,2.7232,2.7238,2.725,2.7151,2.7153,2.7154,2.7228,0,2.6642,2.6733,2.6748,2.6828,2.6873,2.6873,2.6919,2.6953,2.6971,2.7012,2.7033,2.7079,2.7064,2.7081,2.7115,2.7138,2.7181,2.7133,2.719,2.7191,2.7176,2.7263,2.727,2.7338,2.7238,2.724,2.7241,0,2.6738,2.6779,2.6863,2.6905,2.6924,2.6965,2.7011,2.705,2.7089,2.71,2.7133,2.7137,2.7191,2.7164,2.7237,2.7204,2.7229,2.7244,2.7247,2.725,2.7217,2.7266,2.736,2.7369,2.7257,2.7255,2.7254,0,2.6784,2.6861,2.6921,2.6942,2.6993,2.7021,2.7043,2.7081,2.7109,2.715,2.7169,2.7216,2.7241,2.7277,2.7294,2.7273,2.7366,2.734,2.7376,2.7375,2.7393,2.7391,2.7489,2.7414,2.7413,2.7413,2.7413,0,2.6862,2.6913,2.6943,2.698,2.7037,2.7054,2.711,2.7132,2.7165,2.7206,2.7211,2.7249,2.727,2.7312,2.7326,2.7384,2.7396,2.7406,2.7408,2.7404,2.7402,2.7418,2.7412,2.7416,2.7415,2.7415,2.7414,0,2.6922,2.6945,2.701,2.7053,2.7065,2.7105,2.7142,2.7177,2.7197,2.7248,2.7261,2.7291,2.734,2.7362,2.7423,2.7432,2.7497,2.7498,2.7484,2.7484,2.7517,2.7513,2.7626,2.7641,2.7558,2.7559,2.756,0,2.6969,2.7008,2.7055,2.7083,2.7106,2.7151,2.718,2.7199,2.7229,2.7277,2.7307,2.7356,2.7396,2.7474,2.7501,2.7548,2.7548,2.7584,2.7554,2.7548,2.7545,2.7541,2.7545,2.7589,2.759,2.759,2.7591,0,2.7048,2.7057,2.7099,2.7145,2.718,2.7218,2.7254,2.7277,2.7301,2.7335,2.7385,2.7416,2.7478,2.7526,2.7574,2.7597,2.7598,2.7601,2.7611,2.7605,2.7594,2.7598,2.7496,2.7597,2.7596,2.7596,2.7596,2.7595,2.7101,2.7136,2.7174,2.7221,2.725,2.7284,2.732,2.7344,2.7386,2.7437,2.7446,2.7499,2.7537,2.7602,2.7627,2.7669,2.766,2.7675,2.7679,2.7681,2.7682,2.759,2.7678,2.7678,2.7678,2.7678,2.7678,0,2.7178,2.7203,2.7246,2.7297,2.7334,2.7333,2.7373,2.7403,2.745,2.7486,2.7525,2.7583,2.763,2.7661,2.7709,2.7736,2.7737,2.7748,2.7744,2.7749,2.7689,2.7674,2.7746,2.7746,2.7746,2.7746,2.7746,2.7746,2.7222,2.728,2.7294,2.7367,2.7392,2.7444,2.7467,2.7498,2.7527,2.7591,2.763,2.765,2.7684,2.7734,2.7777,2.7785,2.7802,2.7812,2.7819,2.7761,2.7754,2.7747,2.7733,2.7816,2.7816,2.7876,2.7877,2.7877]},{"header":{"parameterUnit":"m.s-1","parameterCategory":1,"la1":30.2991,"la2":30.254,"lo1":-89.0895,"lo2":-89.0444,"dy":0.0017,"dx":0.0017,"nx":28,"ny":28,"refTime":"2024-09-29T21:00:00:Z","depth":0,"parameterNumber":3,"parameterNumberName":"V-component_of_WINDS"},"data":[0,0,0,0,0,0,0,0,0,0,0,0,0,0,0,0,0,0,0,0,0,0,0,0,0,0,0,0,0,0,0,0,0,0,0,0,0,0,0,0,0,0,0,0,0,0,0,0,0,0,0,0,0,0,0,0,0,0,3.1698,3.1699,0,3.1784,3.1785,3.1786,3.1796,3.1795,3.1795,3.1794,3.1875,3.1878,3.1881,0,0,0,0,0,0,0,0,0,0,0,0,0,3.1531,3.1534,3.1697,3.1699,3.17,3.1784,3.1785,3.1787,3.1796,3.1795,3.1794,3.1793,3.1874,3.1877,3.1881,0,0,0,0,0,0,0,0,0,0,0,0,0,3.1609,3.1535,3.1697,3.1715,3.1717,3.1784,3.1786,3.1787,3.1797,3.1795,3.1794,3.1793,3.1873,3.1877,3.1881,3.1934,0,0,3.1895,3.1897,0,0,0,0,0,0,0,0,3.1604,3.1615,3.1711,3.1714,3.1717,3.1778,3.1756,3.1836,3.1797,3.1766,3.1794,3.1792,3.1843,3.185,3.1869,3.1938,3.1941,3.1895,3.1898,3.19,3.1901,0,0,0,0,0,0,0,3.1599,3.1611,3.1732,3.1713,3.1716,3.1715,3.1725,3.1772,3.181,3.1769,3.177,3.178,3.1844,3.1865,3.1871,3.1942,3.1895,3.1899,3.1902,3.1904,3.2055,3.2057,0,0,0,0,0,0,3.1592,3.1607,3.1729,3.1734,3.1657,3.172,3.173,3.176,3.181,3.1817,3.1781,3.1781,3.1858,3.1866,3.1874,3.1936,3.19,3.1904,3.1906,3.2054,3.2056,3.2057,0,0,0,0,0,0,3.1588,3.1602,3.1725,3.1671,3.1687,3.1724,3.1757,3.1762,3.1782,3.182,3.1826,3.1795,3.1857,3.1867,3.1919,3.1939,3.1906,3.191,3.2052,3.2054,3.2056,3.2064,0,0,0,0,0,0,3.1583,3.1601,3.1624,3.1671,3.1689,3.1772,3.1758,3.1765,3.1791,3.1791,3.1834,3.184,3.1857,3.1912,3.1923,3.1945,3.1913,3.2051,3.2053,3.2056,3.2062,3.2066,3.2069,0,0,0,0,0,3.1577,3.1621,3.1625,3.164,3.1719,3.1773,3.1783,3.1803,3.1793,3.1814,3.1837,3.1839,3.1936,3.1917,3.193,3.1953,3.2049,3.2052,3.2055,3.206,3.2065,3.2069,0,0,0,0,0,0,3.1573,3.1628,3.1632,3.1694,3.1729,3.1775,3.1802,3.1808,3.1845,3.1843,3.1864,3.1874,3.1923,3.1944,3.1922,3.2005,3.1991,3.1997,3.199,3.1995,3.1999,3.1992,3.1917,0,0,0,0,0,3.1579,3.1621,3.1666,3.1716,3.1733,3.1765,3.1789,3.1802,3.1838,3.1852,3.1879,3.1912,3.1949,3.1974,3.201,3.2065,3.2073,3.2087,3.2091,3.2094,3.2098,3.2125,3.2131,3.2067,3.2067,3.2067,0,0,3.1592,3.1628,3.1653,3.1716,3.1745,3.1784,3.1777,3.182,3.1849,3.1858,3.1908,3.1929,3.1966,3.2019,3.2043,3.2037,3.2117,3.2098,3.21,3.2102,3.2129,3.2135,3.214,3.2069,3.2069,3.2069,0,0,3.1636,3.1669,3.1713,3.1742,3.1786,3.1807,3.1817,3.1862,3.1877,3.1928,3.1934,3.1967,3.2033,3.2058,3.208,3.2132,3.2134,3.2143,3.2162,3.2189,3.2194,3.2198,3.2214,3.222,3.2147,3.2148,3.2148,0,3.1646,3.171,3.1734,3.1777,3.1803,3.1815,3.1857,3.1883,3.1936,3.1952,3.1945,3.2026,3.2052,3.2109,3.2122,3.214,3.215,3.2138,3.2192,3.2196,3.2201,3.2216,3.2222,3.2148,3.2148,3.2148,3.2148,0,3.1718,3.1762,3.1792,3.1845,3.1874,3.1916,3.1944,3.197,3.1979,3.2,3.205,3.2082,3.2124,3.2139,3.2148,3.2197,3.2191,3.2188,3.2174,3.2207,3.2222,3.2228,3.2149,3.2149,3.2149,3.2149,0,0,3.1762,3.1827,3.1838,3.1861,3.191,3.1942,3.1984,3.2028,3.2048,3.2084,3.2117,3.2171,3.2168,3.2192,3.2204,3.2228,3.2263,3.2221,3.2222,3.2226,3.2316,3.2317,3.2324,3.2266,3.2267,3.2268,3.2312,0,3.181,3.1887,3.1909,3.1973,3.2011,3.2023,3.2058,3.209,3.2109,3.2143,3.2163,3.22,3.2194,3.2209,3.2233,3.2254,3.2282,3.2251,3.2293,3.2294,3.2282,3.2332,3.2334,3.2374,3.2318,3.2319,3.232,0,3.1876,3.1915,3.1984,3.2026,3.2043,3.2075,3.2115,3.2148,3.2183,3.2196,3.2223,3.2232,3.2272,3.2257,3.2311,3.229,3.2308,3.2321,3.2323,3.2326,3.2308,3.2334,3.2388,3.2393,3.233,3.2329,3.2328,0,3.1898,3.1967,3.2017,3.2037,3.2088,3.211,3.2131,3.2166,3.219,3.2224,3.224,3.2277,3.2298,3.2325,3.2343,3.2331,3.2394,3.2381,3.2403,3.2402,3.2414,3.2413,3.2469,3.2429,3.2429,3.2429,3.2429,0,3.1948,3.1989,3.2027,3.2057,3.2102,3.2125,3.2168,3.219,3.222,3.2252,3.2263,3.2292,3.2315,3.2347,3.2361,3.2401,3.2411,3.2419,3.2422,3.2418,3.2416,3.2428,3.2425,3.2431,3.243,3.243,3.243,0,3.198,3.2008,3.2062,3.2106,3.2118,3.2149,3.2185,3.2213,3.2233,3.2273,3.2283,3.2313,3.2351,3.2372,3.2419,3.2428,3.2472,3.2475,3.2461,3.2462,3.2482,3.2479,3.2547,3.2555,3.2511,3.2511,3.2512,0,3.201,3.2041,3.209,3.2113,3.2136,3.2173,3.2199,3.2222,3.2247,3.2288,3.231,3.2349,3.2381,3.2439,3.2463,3.2498,3.25,3.2521,3.2505,3.2499,3.2498,3.2495,3.2497,3.2523,3.2524,3.2524,3.2525,0,3.2058,3.207,3.2107,3.2149,3.2179,3.2212,3.2245,3.2263,3.2291,3.2317,3.2357,3.2382,3.243,3.2467,3.2504,3.2522,3.2527,3.253,3.2536,3.2531,3.2521,3.2524,3.2467,3.2528,3.2527,3.2527,3.2527,3.2527,3.2088,3.2116,3.2154,3.2194,3.2222,3.2252,3.228,3.2304,3.2338,3.2381,3.2391,3.2432,3.2464,3.2514,3.2534,3.2564,3.256,3.2569,3.2572,3.2573,3.2573,3.2517,3.2571,3.2571,3.257,3.257,3.257,0,3.2135,3.216,3.2197,3.2244,3.2275,3.2279,3.2315,3.234,3.2376,3.2407,3.2439,3.2482,3.2518,3.2545,3.2581,3.2599,3.2602,3.2607,3.2605,3.2609,3.2576,3.2566,3.2605,3.2605,3.2604,3.2604,3.2604,3.2604,3.2163,3.221,3.2226,3.2286,3.231,3.2352,3.2372,3.2398,3.2423,3.2472,3.2503,3.2521,3.2549,3.2586,3.2618,3.2625,3.2636,3.2641,3.2648,3.2615,3.2612,3.2608,3.2599,3.2644,3.2644,3.2679,3.2679,3.2679]}]]